Location: American Medical Response
(33.3472°N, 96.5511°W)
Time: 07:33:24
(UTC+00:00)

NOAA 12 - Pass Details

Date: 08 December 2021
Orbit: 794 x 816 km, 98.5° (Epoch: 17 January)

Event Time Altitude Azimuth Distance (km) Brightness Sun altitude
Rises 12:28:15 0° 11° (N) 3,313 7.2 -10.3°
Reaches altitude 10° 12:30:35 10° 10° (N) 2,376 6.4 -9.9°
Maximum altitude 12:35:50 79° 284° (WNW) 814 4.0 -8.8°
Drops below altitude 10° 12:41:02 10° 199° (SSW) 2,355 6.6 -7.8°
Sets 12:43:21 0° 197° (SSW) 3,280 7.3 -7.4°
